| time (UTC) | temp F | wind direction | speed knots | gust knots | rain 1hr in | rain 24hr in | rain mn in | humidity % | barometer mb |
| 20260504173044 | 61 | 347 | 16.5 | 26.9 | 0.00 | 0.00 | 0.00 | 32 | 1003.9 |
| 20260504171543 | 60 | 305 | 14.8 | 26.1 | 0.00 | 0.00 | 0.00 | 43 | 1003.7 |
| 20260504081541 | 50 | 264 | 6.1 | 9.6 | 0.00 | 0.00 | 0.00 | 61 | 1001.3 |
| 20260504044550 | 55 | 271 | 3.5 | 5.2 | 0.00 | 0.00 | 0.00 | 53 | 1004.4 |
| 20260504043050 | 55 | 273 | 3.5 | 4.3 | 0.00 | 0.00 | 0.00 | 52 | 1004.8 |
| 20260504041549 | 55 | 268 | 4.3 | 6.1 | 0.00 | 0.00 | 0.00 | 52 | 1005.1 |
| 20260504040046 | 56 | 273 | 4.3 | 7.0 | 0.00 | 0.00 | 0.00 | 50 | 1005.3 |
| 20260504034554 | 56 | 290 | 4.3 | 7.0 | 0.00 | 0.00 | 0.00 | 50 | 1005.4 |
| 20260504033054 | 56 | 269 | 2.6 | 3.5 | 0.00 | 0.00 | 0.00 | 50 | 1005.5 |
| 20260504031559 | 57 | 276 | 3.5 | 6.1 | 0.00 | 0.00 | 0.00 | 50 | 1005.8 |
| 20260504030049 | 58 | 290 | 4.3 | 6.1 | 0.00 | 0.00 | 0.00 | 48 | 1005.9 |
| 20260504024549 | 60 | 282 | 4.3 | 6.1 | 0.00 | 0.00 | 0.00 | 46 | 1006.1 |
| 20260504023048 | 60 | 277 | 3.5 | 6.1 | 0.00 | 0.00 | 0.00 | 46 | 1006.1 |
| 20260504021548 | 60 | 280 | 4.3 | 5.2 | 0.00 | 0.00 | 0.00 | 45 | 1006.2 |
| 20260504020050 | 61 | 286 | 3.5 | 6.1 | 0.00 | 0.00 | 0.00 | 44 | 1006.2 |
| 20260504014557 | 62 | 271 | 4.3 | 6.1 | 0.00 | 0.00 | 0.00 | 43 | 1006.2 |
| 20260504013050 | 64 | 280 | 2.6 | 7.8 | 0.00 | 0.00 | 0.00 | 41 | 1006.2 |
| 20260504011552 | 66 | 271 | 3.5 | 5.2 | 0.00 | 0.00 | 0.00 | 39 | 1006.2 |
| 20260504010047 | 67 | 265 | 4.3 | 7.0 | 0.00 | 0.00 | 0.00 | 37 | 1006.3 |
| 20260504004546 | 69 | 271 | 4.3 | 8.7 | 0.00 | 0.00 | 0.00 | 36 | 1006.6 |
| 20260504003045 | 69 | 274 | 8.7 | 13.9 | 0.00 | 0.00 | 0.00 | 33 | 1006.6 |
| 20260504001543 | 70 | 264 | 8.7 | 16.5 | 0.00 | 0.00 | 0.00 | 32 | 1006.7 |
| 20260504000116 | 70 | 295 | 11.3 | 16.5 | 0.00 | 0.00 | 0.00 | 31 | 1006.8 |
| 20260503234549 | 70 | 276 | 7.8 | 18.2 | 0.00 | 0.00 | 0.00 | 33 | 1006.9 |
| 20260503233046 | 70 | 283 | 13.9 | 18.2 | 0.00 | 0.00 | 0.00 | 32 | 1007.1 |
| 20260503231546 | 70 | 299 | 9.6 | 15.6 | 0.00 | 0.00 | 0.00 | 30 | 1007.3 |
| 20260503230054 | 70 | 300 | 9.6 | 16.5 | 0.00 | 0.00 | 0.00 | 31 | 1007.2 |
| 20260503224545 | 70 | 303 | 9.6 | 20.0 | 0.00 | 0.00 | 0.00 | 31 | 1007.5 |
| 20260503223048 | 70 | 310 | 11.3 | 18.2 | 0.00 | 0.00 | 0.00 | 29 | 1007.5 |
| 20260503221545 | 70 | 298 | 10.4 | 17.4 | 0.00 | 0.00 | 0.00 | 28 | 1007.7 |
| 20260503220049 | 70 | 296 | 12.2 | 20.0 | 0.00 | 0.00 | 0.00 | 30 | 1007.8 |
| 20260503214548 | 70 | 300 | 13.0 | 21.7 | 0.00 | 0.00 | 0.00 | 31 | 1007.9 |
| 20260503213039 | 70 | 302 | 7.0 | 18.2 | 0.00 | 0.00 | 0.00 | 33 | 1008.1 |
| 20260503211548 | 70 | 312 | 12.2 | 22.6 | 0.00 | 0.00 | 0.00 | 33 | 1008.2 |
| 20260503210047 | 70 | 299 | 4.3 | 17.4 | 0.00 | 0.00 | 0.00 | 33 | 1008.5 |
| 20260503204546 | 70 | 312 | 10.4 | 18.2 | 0.00 | 0.00 | 0.00 | 34 | 1008.7 |
| 20260503203045 | 69 | 295 | 9.6 | 15.6 | 0.00 | 0.00 | 0.00 | 34 | 1009.0 |
| 20260503201547 | 69 | 322 | 10.4 | 17.4 | 0.00 | 0.00 | 0.00 | 33 | 1009.2 |
| 20260503200043 | 70 | 302 | 13.0 | 20.0 | 0.00 | 0.00 | 0.00 | 35 | 1009.3 |
| 20260503194539 | 69 | 321 | 10.4 | 20.9 | 0.00 | 0.00 | 0.00 | 36 | 1009.4 |
| 20260503193046 | 69 | 1 | 11.3 | 22.6 | 0.00 | 0.00 | 0.00 | 36 | 1009.6 |
| 20260503191538 | 68 | 340 | 10.4 | 19.1 | 0.00 | 0.00 | 0.00 | 36 | 1009.6 |
| 20260503190048 | 68 | 331 | 9.6 | 17.4 | 0.00 | 0.00 | 0.00 | 34 | 1009.9 |
| 20260503184600 | 67 | 304 | 12.2 | 22.6 | 0.00 | 0.00 | 0.00 | 37 | 1010.2 |
| 20260503183047 | 67 | 317 | 7.8 | 20.0 | 0.00 | 0.00 | 0.00 | 39 | 1010.2 |
| 20260503181551 | 67 | 315 | 11.3 | 15.6 | 0.00 | 0.00 | 0.00 | 36 | 1010.4 |
| 20260503180049 | 66 | 318 | 12.2 | 20.9 | 0.00 | 0.00 | 0.00 | 40 | 1010.6 |
| 20260503174551 | 66 | 309 | 12.2 | 20.9 | 0.00 | 0.00 | 0.00 | 41 | 1010.8 |